TimeEST,TemperatureF,Dew PointF,Humidity,Sea Level PressureIn,VisibilityMPH,Wind Direction,Wind SpeedMPH,Gust SpeedMPH,PrecipitationIn,Events,Conditions,WindDirDegrees,DateUTC
12:15 AM,60.8,59.0,94,30.12,10.0,NNE,5.8,-,N/A,,Overcast,30,2013-01-03 05:15:00
12:35 AM,60.8,59.0,94,30.11,7.0,NE,4.6,-,N/A,,Overcast,50,2013-01-03 05:35:00
12:55 AM,59.0,59.0,100,30.11,10.0,ENE,5.8,-,N/A,,Overcast,60,2013-01-03 05:55:00
1:15 AM,59.0,59.0,100,30.10,10.0,NE,5.8,-,N/A,,Overcast,50,2013-01-03 06:15:00
1:35 AM,59.0,59.0,100,30.09,10.0,NE,6.9,-,N/A,,Overcast,50,2013-01-03 06:35:00
1:55 AM,59.0,59.0,100,30.09,10.0,ENE,4.6,-,N/A,,Overcast,60,2013-01-03 06:55:00
2:15 AM,59.0,59.0,100,30.10,10.0,Calm,Calm,-,N/A,,Overcast,0,2013-01-03 07:15:00
2:35 AM,59.0,59.0,100,30.10,10.0,Calm,Calm,-,N/A,,Overcast,0,2013-01-03 07:35:00
2:55 AM,59.0,57.2,94,30.10,10.0,NNE,3.5,-,N/A,,Overcast,20,2013-01-03 07:55:00
3:15 AM,59.0,57.2,94,30.10,10.0,Calm,Calm,-,N/A,,Overcast,0,2013-01-03 08:15:00
3:35 AM,59.0,57.2,94,30.10,10.0,Calm,Calm,-,N/A,,Overcast,0,2013-01-03 08:35:00
3:55 AM,57.2,55.4,94,30.11,10.0,Calm,Calm,-,N/A,,Mostly Cloudy,0,2013-01-03 08:55:00
4:15 AM,57.2,55.4,94,30.11,10.0,Calm,Calm,-,N/A,,Overcast,0,2013-01-03 09:15:00
4:35 AM,57.2,55.4,94,30.11,10.0,Calm,Calm,-,N/A,,Overcast,0,2013-01-03 09:35:00
4:55 AM,57.2,55.4,94,30.11,10.0,Calm,Calm,-,N/A,,Mostly Cloudy,0,2013-01-03 09:55:00
5:15 AM,55.4,55.4,100,30.10,10.0,Calm,Calm,-,N/A,,Mostly Cloudy,0,2013-01-03 10:15:00
5:35 AM,55.4,53.6,94,30.11,2.5,Calm,Calm,-,N/A,,Overcast,0,2013-01-03 10:35:00
5:55 AM,55.4,55.4,100,30.13,10.0,Calm,Calm,-,N/A,,Overcast,0,2013-01-03 10:55:00
6:15 AM,57.2,55.4,94,30.13,10.0,NNW,3.5,-,N/A,,Overcast,330,2013-01-03 11:15:00
6:35 AM,57.2,55.4,94,30.13,10.0,NNW,3.5,-,N/A,,Overcast,330,2013-01-03 11:35:00
6:55 AM,57.2,55.4,94,30.14,10.0,North,3.5,-,N/A,,Overcast,350,2013-01-03 11:55:00
7:15 AM,57.2,55.4,94,30.16,10.0,NNW,3.5,-,N/A,,Overcast,330,2013-01-03 12:15:00
7:35 AM,57.2,55.4,94,30.14,10.0,Calm,Calm,-,N/A,,Overcast,0,2013-01-03 12:35:00
7:55 AM,57.2,55.4,94,30.15,10.0,Calm,Calm,-,N/A,,Overcast,0,2013-01-03 12:55:00
8:15 AM,59.0,55.4,88,30.15,10.0,Calm,Calm,-,N/A,,Overcast,0,2013-01-03 13:15:00
8:35 AM,59.0,57.2,94,30.15,10.0,North,3.5,-,N/A,,Overcast,360,2013-01-03 13:35:00
8:55 AM,59.0,55.4,88,30.16,10.0,Calm,Calm,-,N/A,,Overcast,0,2013-01-03 13:55:00
9:15 AM,59.0,55.4,88,30.17,10.0,Calm,Calm,-,N/A,,Overcast,0,2013-01-03 14:15:00
9:35 AM,59.0,57.2,94,30.17,10.0,Calm,Calm,-,N/A,,Overcast,0,2013-01-03 14:35:00
9:55 AM,59.0,57.2,94,30.19,10.0,North,3.5,-,N/A,,Overcast,350,2013-01-03 14:55:00
10:35 AM,59.0,57.2,94,30.20,10.0,NNW,4.6,-,N/A,,Overcast,330,2013-01-03 15:35:00
10:55 AM,59.0,57.2,94,30.21,10.0,NW,3.5,-,N/A,,Overcast,320,2013-01-03 15:55:00
11:15 AM,59.0,57.2,94,30.20,10.0,NNW,3.5,-,N/A,,Overcast,330,2013-01-03 16:15:00
11:35 AM,59.0,59.0,100,30.18,10.0,North,4.6,-,N/A,,Overcast,10,2013-01-03 16:35:00
11:55 AM,59.0,59.0,100,30.18,10.0,North,3.5,-,N/A,,Overcast,350,2013-01-03 16:55:00
12:15 PM,59.0,59.0,100,30.17,10.0,Calm,Calm,-,N/A,,Overcast,0,2013-01-03 17:15:00
12:35 PM,60.8,59.0,94,30.18,7.0,Calm,Calm,-,N/A,,Overcast,0,2013-01-03 17:35:00
12:55 PM,59.0,53.6,82,30.16,7.0,Calm,Calm,-,N/A,,Overcast,0,2013-01-03 17:55:00
1:15 PM,59.0,53.6,82,30.15,10.0,Calm,Calm,-,N/A,,Overcast,0,2013-01-03 18:15:00
1:35 PM,59.0,55.4,88,30.14,7.0,Calm,Calm,-,N/A,,Overcast,0,2013-01-03 18:35:00
1:55 PM,59.0,55.4,88,30.15,7.0,WNW,4.6,-,N/A,,Overcast,290,2013-01-03 18:55:00
2:15 PM,55.4,55.4,100,30.15,7.0,WNW,5.8,-,N/A,,Overcast,290,2013-01-03 19:15:00
2:35 PM,55.4,55.4,100,30.16,7.0,NW,4.6,-,N/A,,Overcast,310,2013-01-03 19:35:00
2:55 PM,55.4,53.6,94,30.16,7.0,NNW,5.8,-,N/A,,Overcast,330,2013-01-03 19:55:00
3:15 PM,53.6,53.6,100,30.15,10.0,North,4.6,-,N/A,,Overcast,10,2013-01-03 20:15:00
3:35 PM,53.6,51.8,94,30.16,10.0,NNW,4.6,-,N/A,,Overcast,330,2013-01-03 20:35:00
3:55 PM,53.6,51.8,94,30.17,10.0,NW,4.6,-,N/A,,Overcast,320,2013-01-03 20:55:00
4:15 PM,53.6,51.8,94,30.18,10.0,NW,5.8,-,N/A,,Overcast,320,2013-01-03 21:15:00
4:35 PM,51.8,50.0,94,30.19,10.0,NNW,5.8,-,N/A,,Overcast,330,2013-01-03 21:35:00
4:55 PM,51.8,50.0,94,30.21,10.0,NW,3.5,-,N/A,,Overcast,320,2013-01-03 21:55:00
5:15 PM,51.8,50.0,94,30.21,10.0,WNW,3.5,-,N/A,,Overcast,290,2013-01-03 22:15:00
5:35 PM,51.8,50.0,94,30.21,10.0,NNW,3.5,-,N/A,,Overcast,340,2013-01-03 22:35:00
5:55 PM,51.8,51.8,100,30.21,10.0,Calm,Calm,-,N/A,,Overcast,0,2013-01-03 22:55:00
6:15 PM,51.8,50.0,94,30.21,10.0,Calm,Calm,-,N/A,,Overcast,0,2013-01-03 23:15:00
6:35 PM,51.8,51.8,100,30.21,10.0,Calm,Calm,-,N/A,,Overcast,0,2013-01-03 23:35:00
6:55 PM,51.8,51.8,100,30.23,10.0,Calm,Calm,-,N/A,,Overcast,0,2013-01-03 23:55:00
7:15 PM,51.8,51.8,100,30.23,10.0,Calm,Calm,-,N/A,,Overcast,0,2013-01-04 00:15:00
7:35 PM,51.8,51.8,100,30.24,10.0,Calm,Calm,-,N/A,,Overcast,0,2013-01-04 00:35:00
7:55 PM,51.8,51.8,100,30.24,10.0,NW,3.5,-,N/A,,Overcast,310,2013-01-04 00:55:00
8:15 PM,51.8,51.8,100,30.24,10.0,NW,4.6,-,N/A,,Overcast,310,2013-01-04 01:15:00
8:35 PM,51.8,51.8,100,30.25,10.0,NW,3.5,-,N/A,,Overcast,310,2013-01-04 01:35:00
8:55 PM,51.8,51.8,100,30.24,10.0,Calm,Calm,-,N/A,,Overcast,0,2013-01-04 01:55:00
9:15 PM,51.8,51.8,100,30.26,10.0,NW,3.5,-,N/A,,Overcast,320,2013-01-04 02:15:00
9:35 PM,51.8,51.8,100,30.26,10.0,NNW,3.5,-,N/A,,Overcast,330,2013-01-04 02:35:00
9:55 PM,51.8,51.8,100,30.26,10.0,NNW,4.6,-,N/A,,Overcast,340,2013-01-04 02:55:00
10:15 PM,51.8,50.0,94,30.27,10.0,NNW,4.6,-,N/A,,Overcast,330,2013-01-04 03:15:00
10:35 PM,51.8,50.0,94,30.27,10.0,NNW,3.5,-,N/A,,Overcast,330,2013-01-04 03:35:00
10:55 PM,51.8,50.0,94,30.27,10.0,NNW,5.8,-,N/A,,Overcast,330,2013-01-04 03:55:00
11:15 PM,51.8,50.0,94,30.26,10.0,North,3.5,-,N/A,,Overcast,360,2013-01-04 04:15:00
11:35 PM,51.8,50.0,94,30.26,10.0,North,3.5,-,N/A,,Overcast,350,2013-01-04 04:35:00
11:55 PM,51.8,50.0,94,30.26,10.0,NNW,3.5,-,N/A,,Overcast,340,2013-01-04 04:55:00